Weather History for Phuket, Thailand

Change the Weather History Date:

Thursday, July 4, 2013

  Actual Average Record
Temperature  
Mean Temperature 76 °F -  
Max Temperature 80 °F 88 °F 93 °F (1996)
Min Temperature 72 °F 78 °F 72 °F (2012)
Cooling Degree Days 11    
Growing Degree Days 26 (Base 50)    
Moisture  
Dew Point 72 °F    
Average Humidity 82    
Maximum Humidity 99    
Minimum Humidity 70    
Precipitation  
Precipitation 0.98 in 0.37 in - ()
Sea Level Pressure  
Sea Level Pressure 29.79 in    
Wind  
Wind Speed 15 mph ()    
Max Wind Speed 31 mph    
Max Gust Speed 39 mph    
Visibility 3.8 miles    
Events Rain    
Averages and records for this station are not official NWS values.
T = Trace of Precipitation, MM = Missing Value Source: Averaged Metar Reports

Daily Weather History Graph

Daily Weather History Graph

Search for Another Location

Airport:

Trip Planner

Search our weather history database for the weather conditions in past years. The results will help you decide how hot, cold, wet, or windy it might be!

Date:

Astronomy

Jul. 04, 2013 Rise Set
Actual Time 6:13 AM ICT 6:48 PM ICT
Civil Twilight 5:50 AM ICT 7:11 PM ICT
Nautical Twilight 5:24 AM ICT 7:38 PM ICT
Astronomical Twilight 4:57 AM ICT 8:05 PM ICT
Moon 2:52 AM ICT (7/4) 3:38 PM ICT (7/4)
Length of Visible Light 13h 20m
Length of Day
12h 34m
Waning Crescent, 14% of the Moon is Illuminated
Jul 4
Waning Crescent
Jul 8
New
Jul 16
First Quarter
Jul 23
Full
Jul 30
Last Quarter

Hourly Weather History & Observations

Time (ICT) Temp. Heat Index Dew Point Humidity Pressure Visibility Wind Dir Wind Speed Gust Speed Precip Events Conditions
12:00 AM 77.0 °F - 73.4 °F 89% 29.83 in 3.1 mi West 19.6 mph - N/A Rain Rain
12:30 AM 77.0 °F - 73.4 °F 89% 29.80 in 4.3 mi WSW 16.1 mph - N/A Rain Light Rain
1:00 AM 78 °F - 75 °F 89% 29.77 in 4 mi WSW 11.5 mph - - Rain Light Rain
1:00 AM 77.0 °F - 73.4 °F 89% 29.80 in 4.3 mi WSW 13.8 mph - N/A Rain Light Rain
1:30 AM 78.8 °F - 75.2 °F 89% 29.77 in 4.3 mi WSW 11.5 mph - N/A Rain Light Rain
2:00 AM 77.0 °F - 73.4 °F 89% 29.77 in 4.3 mi West 23.0 mph - N/A Rain Light Rain
2:30 AM 77.0 °F - 71.6 °F 83% 29.77 in 4.3 mi West 21.9 mph 33.4 mph N/A Rain Light Rain
3:00 AM 77.0 °F - 71.6 °F 83% 29.77 in 5.0 mi West 23.0 mph - N/A   Mostly Cloudy
3:30 AM 77.0 °F - 71.6 °F 83% 29.77 in 5.0 mi West 21.9 mph - N/A   Mostly Cloudy
4:00 AM 77.0 °F - 73.4 °F 89% 29.77 in 4.3 mi West 18.4 mph - N/A Rain Light Rain
4:30 AM 77.0 °F - 73.4 °F 89% 29.77 in 4.3 mi West 13.8 mph - N/A Rain Light Rain
5:00 AM 73.4 °F - 69.8 °F 88% 29.77 in 0.6 mi West 21.9 mph 39.1 mph N/A Rain Heavy Rain
5:30 AM 75.2 °F - 69.8 °F 83% 29.77 in 3.1 mi Variable 9.2 mph 21.9 mph N/A Rain Rain
6:00 AM 77.0 °F - 69.8 °F 78% 29.77 in 3.1 mi WSW 10.4 mph 25.3 mph N/A Rain Rain
6:30 AM 73.4 °F - 69.8 °F 88% 29.80 in 0.6 mi West 27.6 mph 39.1 mph N/A Rain Heavy Rain
7:00 AM 75 °F - 75 °F 99% 29.77 in 1 mi West 17.3 mph - - Rain Light Rain
7:00 AM 75.2 °F - 71.6 °F 89% 29.80 in 0.6 mi WSW 9.2 mph 20.7 mph N/A Rain Heavy Rain
7:30 AM 77.0 °F - 73.4 °F 89% 29.83 in 1.9 mi West 20.7 mph - N/A Rain Rain
8:00 AM 77.0 °F - 71.6 °F 83% 29.83 in 1.9 mi West 24.2 mph - N/A Rain Rain
8:30 AM 77.0 °F - 71.6 °F 83% 29.83 in 3.1 mi West 23.0 mph - N/A Rain Rain
9:00 AM 77.0 °F - 71.6 °F 83% 29.86 in 3.1 mi West 18.4 mph - N/A Rain Light Rain
9:30 AM 77.0 °F - 71.6 °F 83% 29.86 in 3.1 mi West 21.9 mph - N/A Rain Light Rain
10:00 AM 77.0 °F - 71.6 °F 83% 29.86 in 4.3 mi West 16.1 mph - N/A Rain Light Rain
10:30 AM 77.0 °F - 69.8 °F 78% 29.86 in 4.3 mi WNW 15.0 mph - N/A Rain Light Rain
11:00 AM 78.8 °F - 71.6 °F 78% 29.86 in 3.1 mi West 20.7 mph 32.2 mph N/A Rain Rain
11:30 AM 77.0 °F - 69.8 °F 78% 29.86 in 4.3 mi West 17.3 mph - N/A Rain Light Rain
12:00 PM 78.8 °F - 69.8 °F 74% 29.83 in 4.3 mi WSW 15.0 mph - N/A Rain Light Rain
12:30 PM 78.8 °F - 71.6 °F 78% 29.83 in 4.3 mi West 15.0 mph - N/A Rain Light Rain
1:00 PM 80 °F - 73 °F 73% 29.78 in 4 mi West 15.0 mph - - Rain Light Rain
1:00 PM 80.6 °F 83.9 °F 69.8 °F 70% 29.83 in 4.3 mi West 20.7 mph - N/A   Mostly Cloudy
1:30 PM 78.8 °F - 73.4 °F 83% 29.80 in 4.3 mi WNW 17.3 mph 28.8 mph N/A Rain Light Rain
2:00 PM 78.8 °F - 73.4 °F 83% 29.80 in 4.3 mi West 25.3 mph - N/A Rain Light Rain
2:30 PM 75.2 °F - 71.6 °F 89% 29.80 in 1.2 mi West 31.1 mph - N/A Rain Heavy Rain
3:00 PM 75.2 °F - 71.6 °F 89% 29.80 in 1.9 mi WSW 24.2 mph - N/A Rain Rain
3:30 PM 77.0 °F - 69.8 °F 78% 29.77 in 3.1 mi WSW 19.6 mph 31.1 mph N/A Rain Light Rain
4:00 PM 77.0 °F - 69.8 °F 78% 29.77 in 4.3 mi WSW 16.1 mph - N/A Rain Light Rain
4:30 PM 77.0 °F - 71.6 °F 83% 29.77 in 4.3 mi West 20.7 mph - N/A   Mostly Cloudy
5:00 PM 78.8 °F - 69.8 °F 74% 29.74 in 4.3 mi West 19.6 mph - N/A   Mostly Cloudy
5:30 PM 78.8 °F - 69.8 °F 74% 29.74 in 5.0 mi West 15.0 mph - N/A   Mostly Cloudy
6:00 PM 78.8 °F - 69.8 °F 74% 29.74 in 5.0 mi West 11.5 mph - N/A   Mostly Cloudy
6:30 PM 78.8 °F - 69.8 °F 74% 29.74 in 5.0 mi West 9.2 mph - N/A   Mostly Cloudy
7:00 PM 80 °F - 72 °F 70% 29.72 in 5 mi West 8.1 mph - -   Mist
7:00 PM 78.8 °F - 71.6 °F 78% 29.74 in 5.0 mi WNW 8.1 mph - N/A   Mostly Cloudy
7:30 PM 78.8 °F - 69.8 °F 74% 29.74 in 5.0 mi West 9.2 mph - N/A   Mostly Cloudy
8:00 PM 78.8 °F - 69.8 °F 74% 29.77 in 5.0 mi West 5.8 mph - N/A   Mostly Cloudy
8:30 PM 77.0 °F - 71.6 °F 83% 29.77 in 5.0 mi Variable 3.5 mph - N/A   Mostly Cloudy
9:00 PM 77.0 °F - 71.6 °F 83% 29.80 in 5.0 mi West 5.8 mph - N/A   Mostly Cloudy
9:30 PM 77.0 °F - 71.6 °F 83% 29.80 in 5.0 mi Calm Calm - N/A   Mostly Cloudy
10:00 PM 75.2 °F - 71.6 °F 89% 29.80 in 5.0 mi Calm Calm - N/A   Mostly Cloudy
10:30 PM 77.0 °F - 71.6 °F 83% 29.80 in 5.0 mi West 3.5 mph - N/A   Mostly Cloudy
11:00 PM 78.8 °F - 73.4 °F 83% 29.80 in 5.0 mi West 4.6 mph - N/A   Mostly Cloudy
11:30 PM 78.8 °F - 73.4 °F 83% 29.80 in 5.0 mi Variable 3.5 mph - N/A   Mostly Cloudy